Home   Weather   Itabuna   Past weeks
Flag for Brazil

Past Weather in Itabuna, Bahia, Brazil — Yesterday and Last 2 Weeks

Now
82 °F

Passing clouds.


Feels Like: 89 °F
Forecast: 94 / 72 °F
Wind: 8 mph from East

Location: Salvador Aeroporto

Current Time: Apr 8, 2020 at 12:00:18 am

Latest Report: Apr 7, 2020 at 11:00 pm


Visibility: N/A

Pressure: 29.92 "Hg

Humidity: 79%

Dew Point: 75 °F

Location of ItabunaLocation

Past Weather in Itabuna — Graph

°F

Itabuna Temperature Yesterday

Maximum temperature yesterday: 88 °F (at 1:00 pm)
Minimum temperature yesterday: 79 °F (at 1:00 am)
Average temperature yesterday: 84 °F

High & Low Weather Summary for the Past Weeks

 TemperatureHumidityPressure
High91 °F (Apr 4, 1:00 pm)100% (Mar 24, 8:00 am)30.04 "Hg (Mar 24, 8:00 am)
Low75 °F (Mar 24, 8:00 am)62% (Mar 27, 11:00 am)29.77 "Hg (Apr 4, 3:00 pm)
Average82 °F81%29.91 "Hg
* Reported Mar 23 10:00 pm — Apr 7 10:00 pm, Itabuna. Weather by CustomWeather, © 2020

Note: Actual official high and low records may vary slightly from our data, if they occured in-between our weather recording intervals... More about our weather records

Itabuna Weather History for the Previous 24 Hours

Scroll right to see more
 ConditionsComfort  
Time TempWeatherWind HumidityBarometerVisibility
10:00 pm
Tue, Apr 7
82 °FPassing clouds.9 mph79%29.95 "HgN/A
9:00 pm82 °FPassing clouds.9 mph79%29.95 "HgN/A
8:00 pm84 °FPassing clouds.7 mph74%29.92 "HgN/A
7:00 pm84 °FPassing clouds.6 mph74%29.92 "HgN/A
6:00 pm84 °FPassing clouds.6 mph74%29.92 "HgN/A
5:00 pm84 °FPassing clouds.8 mph74%29.89 "HgN/A
4:00 pm86 °FPassing clouds.9 mph70%29.89 "HgN/A
3:00 pm86 °FPassing clouds.10 mph70%29.89 "HgN/A
2:00 pm88 °FPassing clouds.10 mph70%29.92 "HgN/A
1:00 pm88 °FPassing clouds.9 mph66%29.92 "HgN/A
12:00 pm86 °FScattered clouds.8 mph70%29.95 "HgN/A
11:00 am86 °FPassing clouds.8 mph66%29.98 "HgN/A
10:00 am86 °FScattered clouds.6 mph75%30.01 "HgN/A
9:00 am86 °FScattered clouds.9 mph75%29.98 "HgN/A
8:00 am86 °FScattered clouds.7 mph70%29.98 "HgN/A
7:00 am84 °FPartly sunny.7 mph70%29.95 "HgN/A
6:00 am82 °FBroken clouds.5 mph74%29.95 "HgN/A
5:00 am82 °FPassing clouds.7 mph74%29.92 "HgN/A
4:00 am82 °FPassing clouds.9 mph79%29.92 "HgN/A
3:00 am82 °FPassing clouds.10 mph74%29.92 "HgN/A
2:00 am81 °FScattered showers. Passing clouds.13 mph84%29.92 "Hg5 mi
1:25 am79 °FRain. Partly cloudy.12 mph89%29.92 "Hg3 mi
1:00 am79 °FPassing clouds.6 mph94%29.95 "HgN/A
12:00 am81 °FPassing clouds.5 mph89%29.95 "HgN/A
Weather by CustomWeather, © 2020

See weather overview

Advertising